When you browse on this site, cookies collect data to enhance your experience and personalize the content and advertising you see.
Visit our Privacy Policy to learn more. By continuing to use the site, you agree to this use of cookies and data.
  • In Portugal
  • List of Countries
  • For 7 days
  • Water Temperature
  • Satellite Maps
  • Weather Map
  • Weather Widgets
  • user-avatar
    Login

    Hourly Weather Miyadzaki

    Today, 22 April, Monday

    Time Temperature Precipitation Wind Pressure Humidity
    00:00 +19°C° 0 mm 1 mps 751 mmHg 88%
    01:00 +18°C° 0 mm 1 mps 751 mmHg 88%
    02:00 +18°C° 0 mm 1 mps 751 mmHg 87%
    03:00 +18°C° 0 mm 1 mps 751 mmHg 86%
    04:00 +18°C° 0 mm 1 mps 751 mmHg 85%
    05:00 +16°C° 0 mm 1 mps 751 mmHg 84%
    06:00 +16°C° 0 mm 1 mps 751 mmHg 82%
    07:00 +20°C° 0 mm 1 mps 751 mmHg 75%
    08:00 +22°C° 0 mm 1 mps 752 mmHg 67%
    09:00 +24°C° 0 mm 2 mps 752 mmHg 59%
    10:00 +26°C° 0 mm 2 mps 752 mmHg 56%
    11:00 +27°C° 0 mm 2 mps 752 mmHg 53%
    12:00 +28°C° 0 mm 2 mps 752 mmHg 50%
    13:00 +28°C° 0 mm 2 mps 752 mmHg 52%
    14:00 +28°C° 0 mm 2 mps 752 mmHg 53%
    15:00 +27°C° 0 mm 2 mps 752 mmHg 60%
    16:00 +26°C° 0 mm 2 mps 752 mmHg 65%
    17:00 +25°C° 0 mm 2 mps 752 mmHg 71%
    18:00 +24°C° 0 mm 1 mps 752 mmHg 77%
    19:00 +22°C° 0 mm 1 mps 752 mmHg 82%
    20:00 +21°C° 0 mm 1 mps 753 mmHg 88%
    21:00 +18°C° 0 mm 0 mps 753 mmHg 93%
    22:00 +18°C° 0 mm 0 mps 753 mmHg 94%
    23:00 +18°C° 0 mm 0 mps 753 mmHg 94%

    Tomorrow, 23 April, Tuesday

    Time Temperature Precipitation Wind Pressure Humidity
    00:00 +17°C° 0 mm 0 mps 753 mmHg 95%
    01:00 +17°C° 0 mm 0 mps 753 mmHg 94%
    02:00 +17°C° 0 mm 0 mps 753 mmHg 94%
    03:00 +19°C° 0 mm 1 mps 753 mmHg 94%
    04:00 +19°C° 0 mm 1 mps 753 mmHg 94%
    05:00 +19°C° 0 mm 1 mps 753 mmHg 93%
    06:00 +20°C° 0 mm 1 mps 753 mmHg 93%
    07:00 +20°C° 0 mm 2 mps 754 mmHg 88%
    08:00 +21°C° 0 mm 2 mps 754 mmHg 82%
    09:00 +22°C° 0 mm 3 mps 754 mmHg 77%
    10:00 +24°C° 0.1 mm 3 mps 754 mmHg 76%
    11:00 +23°C° 0.1 mm 4 mps 754 mmHg 75%
    12:00 +23°C° 0.1 mm 4 mps 754 mmHg 74%
    13:00 +22°C° 0.9 mm 4 mps 753 mmHg 80%
    14:00 +21°C° 0.9 mm 4 mps 753 mmHg 85%
    15:00 +21°C° 0.9 mm 4 mps 753 mmHg 90%
    16:00 +20°C° 1.6 mm 4 mps 753 mmHg 91%
    17:00 +20°C° 1.6 mm 4 mps 753 mmHg 91%
    18:00 +19°C° 1.6 mm 5 mps 752 mmHg 92%
    19:00 +19°C° 0.7 mm 5 mps 752 mmHg 92%
    20:00 +19°C° 0.7 mm 5 mps 752 mmHg 92%
    21:00 +19°C° 0.7 mm 5 mps 753 mmHg 92%
    22:00 +19°C° 0.6 mm 5 mps 752 mmHg 92%
    23:00 +19°C° 0.6 mm 5 mps 752 mmHg 92%

    Day after tomorrow, 24 April, Wednesday

    Time Temperature Precipitation Wind Pressure Humidity
    00:00 +19°C° 0.6 mm 5 mps 752 mmHg 91%
    01:00 +20°C° 1.1 mm 5 mps 752 mmHg 93%
    02:00 +20°C° 1.1 mm 4 mps 751 mmHg 94%
    03:00 +20°C° 1.1 mm 4 mps 751 mmHg 95%
    04:00 +20°C° 1.4 mm 4 mps 750 mmHg 96%
    05:00 +20°C° 1.4 mm 4 mps 750 mmHg 97%
    06:00 +20°C° 1.4 mm 3 mps 750 mmHg 98%
    07:00 +21°C° 1.4 mm 3 mps 750 mmHg 96%
    08:00 +22°C° 1.4 mm 3 mps 750 mmHg 95%
    09:00 +24°C° 1.4 mm 2 mps 750 mmHg 94%
    10:00 +25°C° 1.3 mm 2 mps 750 mmHg 89%
    11:00 +27°C° 1.3 mm 3 mps 750 mmHg 84%
    12:00 +28°C° 1.3 mm 3 mps 749 mmHg 80%
    13:00 +28°C° 1.5 mm 3 mps 749 mmHg 81%
    14:00 +28°C° 1.5 mm 3 mps 748 mmHg 81%
    15:00 +27°C° 1.5 mm 3 mps 748 mmHg 82%
    16:00 +27°C° 0.6 mm 3 mps 747 mmHg 84%
    17:00 +26°C° 0.6 mm 3 mps 747 mmHg 85%
    18:00 +25°C° 0.6 mm 3 mps 747 mmHg 86%
    19:00 +25°C° 0 mm 3 mps 747 mmHg 89%
    20:00 +24°C° 0 mm 2 mps 748 mmHg 91%
    21:00 +23°C° 0 mm 2 mps 748 mmHg 94%
    22:00 +23°C° 0.8 mm 2 mps 748 mmHg 95%
    23:00 +21°C° 0.8 mm 2 mps 748 mmHg 96%

    25 April, Thursday

    Time Temperature Precipitation Wind Pressure Humidity
    00:00 +21°C° 0.8 mm 2 mps 747 mmHg 97%
    01:00 +21°C° 1.1 mm 2 mps 747 mmHg 97%
    02:00 +22°C° 1.1 mm 1 mps 746 mmHg 97%
    03:00 +22°C° 1.1 mm 1 mps 746 mmHg 97%
    04:00 +22°C° 0.4 mm 1 mps 746 mmHg 97%
    05:00 +22°C° 0.4 mm 1 mps 746 mmHg 97%
    06:00 +21°C° 0.4 mm 1 mps 746 mmHg 97%
    07:00 +23°C° 0 mm 1 mps 746 mmHg 91%
    08:00 +25°C° 0 mm 2 mps 746 mmHg 85%
    09:00 +26°C° 0 mm 2 mps 747 mmHg 79%
    10:00 +27°C° 0 mm 2 mps 746 mmHg 74%
    11:00 +28°C° 0 mm 2 mps 746 mmHg 70%
    12:00 +29°C° 0 mm 2 mps 746 mmHg 66%
    13:00 +29°C° 0.2 mm 2 mps 746 mmHg 65%
    14:00 +29°C° 0.2 mm 3 mps 746 mmHg 64%
    15:00 +29°C° 0.2 mm 3 mps 746 mmHg 64%
    16:00 +27°C° 0 mm 4 mps 746 mmHg 67%
    17:00 +26°C° 0 mm 4 mps 746 mmHg 70%
    18:00 +25°C° 0 mm 4 mps 746 mmHg 73%
    19:00 +22°C° 0 mm 4 mps 746 mmHg 77%
    20:00 +21°C° 0 mm 4 mps 747 mmHg 82%
    21:00 +19°C° 0 mm 4 mps 747 mmHg 86%
    22:00 +19°C° 0 mm 3 mps 747 mmHg 87%
    23:00 +19°C° 0 mm 3 mps 747 mmHg 88%

    26 April, Friday

    Time Temperature Precipitation Wind Pressure Humidity
    00:00 +18°C° 0 mm 3 mps 747 mmHg 89%
    01:00 +18°C° 0 mm 3 mps 747 mmHg 90%
    02:00 +18°C° 0 mm 3 mps 747 mmHg 91%
    03:00 +18°C° 0 mm 3 mps 747 mmHg 91%
    04:00 +18°C° 0 mm 3 mps 747 mmHg 91%
    05:00 +18°C° 0 mm 3 mps 747 mmHg 90%
    06:00 +17°C° 0 mm 3 mps 747 mmHg 89%
    07:00 +19°C° 0 mm 3 mps 748 mmHg 81%
    08:00 +21°C° 0 mm 3 mps 748 mmHg 72%
    09:00 +22°C° 0 mm 3 mps 749 mmHg 64%
    10:00 +25°C° 0 mm 3 mps 749 mmHg 58%
    11:00 +26°C° 0 mm 3 mps 749 mmHg 52%
    12:00 +27°C° 0 mm 3 mps 749 mmHg 46%
    13:00 +27°C° 0 mm 3 mps 749 mmHg 44%
    14:00 +27°C° 0 mm 4 mps 749 mmHg 42%
    15:00 +27°C° 0 mm 4 mps 749 mmHg 40%
    16:00 +26°C° 0 mm 4 mps 749 mmHg 48%
    17:00 +24°C° 0 mm 3 mps 749 mmHg 55%
    18:00 +22°C° 0 mm 3 mps 749 mmHg 63%
    19:00 +20°C° 0 mm 2 mps 750 mmHg 71%
    20:00 +19°C° 0 mm 2 mps 750 mmHg 78%
    21:00 +18°C° 0 mm 1 mps 751 mmHg 86%
    22:00 +17°C° 0 mm 2 mps 751 mmHg 86%
    23:00 +17°C° 0 mm 2 mps 751 mmHg 85%

    27 April, Saturday

    Time Temperature Precipitation Wind Pressure Humidity
    00:00 +17°C° 0 mm 2 mps 751 mmHg 85%
    01:00 +17°C° 0.1 mm 2 mps 751 mmHg 87%
    02:00 +16°C° 0.1 mm 2 mps 751 mmHg 90%
    03:00 +16°C° 0.1 mm 2 mps 751 mmHg 92%
    04:00 +16°C° 0.1 mm 2 mps 752 mmHg 92%
    05:00 +15°C° 0.1 mm 2 mps 752 mmHg 93%
    06:00 +15°C° 0.1 mm 2 mps 753 mmHg 93%
    07:00 +16°C° 0.1 mm 3 mps 754 mmHg 87%
    08:00 +17°C° 0.1 mm 3 mps 754 mmHg 81%
    09:00 +18°C° 0.1 mm 4 mps 755 mmHg 75%
    10:00 +19°C° 0 mm 4 mps 755 mmHg 69%
    11:00 +19°C° 0 mm 4 mps 755 mmHg 63%
    12:00 +20°C° 0 mm 4 mps 755 mmHg 57%
    13:00 +19°C° 0 mm 4 mps 755 mmHg 60%
    14:00 +19°C° 0 mm 4 mps 754 mmHg 62%
    15:00 +18°C° 0 mm 4 mps 754 mmHg 65%
    16:00 +18°C° 0 mm 4 mps 754 mmHg 65%
    17:00 +17°C° 0 mm 3 mps 755 mmHg 65%
    18:00 +17°C° 0 mm 3 mps 755 mmHg 65%
    19:00 +16°C° 0 mm 3 mps 756 mmHg 65%
    20:00 +16°C° 0 mm 2 mps 756 mmHg 64%
    21:00 +15°C° 0 mm 2 mps 757 mmHg 64%
    22:00 +15°C° 0 mm 2 mps 757 mmHg 65%
    23:00 +14°C° 0 mm 2 mps 757 mmHg 65%
    Show more